Regional Weather Roundup
Issued by NWS

Home | Current Version | Previous Version | Graphics & Text | Print | Product List | Glossary On
Versions: 1 2 3 4 5 6 7 8 9 10 11 12 13 14 15 16 17 18 19 20 21 22 23 24 25 26 27 28 29 30 31 32 33 34 35 36 37 38 39 40 41 42 43 44 45 46 47 48 49 50
000
ASUS43 KIND 311059
RWRIN

WEATHER ROUNDUP FOR INDIANA
NATIONAL WEATHER SERVICE INDIANAPOLIS IN
600 AM EST SAT JAN 31 2015

NOTE: "FAIR" INDICATES FEW OR NO CLOUDS BELOW 12,000 FEET WITH NO
SIGNIFICANT WEATHER AND/OR OBSTRUCTIONS TO VISIBILITY.

* - STATION DOES NOT REPORT WEATHER SUCH AS PRECIPITATION OR FOG.

+ - STATION NOT QUALITY CONTROLLED BY THE NATIONAL WEATHER SERVICE.
    USE DATA WITH CAUTION...ESPECIALLY DEWPOINT AND RELATIVE
    HUMIDITY OBSERVATIONS.

INZ001>003-010>013-019-020-311200-
NORTHWEST INDIANA

CITY           SKY/WX    TMP DP  RH WIND       PRES   REMARKS
GARY /AIRPORT/ CLOUDY    28  19  69 VRB7      30.28F WCI  21
VALPARAISO     NOT AVBL

$$

LMZ046-743>745-311200-
SOUTHERN LAKE MICHIGAN

STATION/POSITION TIME  TEMP WIND        PRES
                       AIR  DIR/SP/G
                 (UTC) (F)  (DEG/KT/KT) (MB)
MICHIGAN CITY    1000   25  180/ 10/ 12   N/A

$$

INZ004-005-014>016-021>024-311200-
NORTH CENTRAL INDIANA

CITY           SKY/WX    TMP DP  RH WIND       PRES   REMARKS
GOSHEN         CLOUDY    21  16  81 SW8       30.29F WCI  11
SOUTH BEND     MOCLDY    21  15  78 SW8       30.28  WCI  11

$$

INZ006>009-017-018-025>027-311200-
NORTHEAST INDIANA

CITY           SKY/WX    TMP DP  RH WIND       PRES   REMARKS
ANGOLA *+      MOCLDY    10   9  92 CALM      30.28F
FORT WAYNE     MOCLDY    18  14  84 SW7       30.33S WCI   9

$$

INZ028-029-035-036-043>045-051>053-311200-
WEST CENTRAL INDIANA

CITY           SKY/WX    TMP DP  RH WIND       PRES   REMARKS
GREENCASTLE +  CLEAR     21  12  68 CALM      30.33S
LAFAYETTE      MOCLDY    20  16  84 CALM      30.33R
TERRE HAUTE    CLEAR     21  16  81 CALM      30.35S

$$

INZ030>032-037>040-046>048-054>057-064-065-311200-
CENTRAL INDIANA

CITY           SKY/WX    TMP DP  RH WIND       PRES   REMARKS
GREENWOOD *+   CLEAR     19  14  79 S6        30.33F WCI  11
INDIANAPOLIS   CLEAR     16  13  88 SW5       30.32F WCI   9
-EAGLE CREEK   CLEAR     19  14  81 CALM      30.33S
KOKOMO *+      CLOUDY    23  18  80 S7        30.32S WCI  15
MT COMFORT *+  CLEAR     19  12  73 S5        30.33S WCI  13
SHELBYVILLE    CLEAR     22  16  78 S9        30.33F WCI  12

$$

INZ033-034-041-042-049-050-058-059-311200-
EAST CENTRAL INDIANA

CITY           SKY/WX    TMP DP  RH WIND       PRES   REMARKS
MUNCIE         PTCLDY    20  15  81 S7        30.32F WCI  11

$$

INZ060-061-067>069-081>083-085>088-311200-
SOUTHWEST INDIANA

CITY           SKY/WX    TMP DP  RH WIND       PRES   REMARKS
EVANSVILLE     MOCLDY    25  20  81 CALM      30.39F
HUNTINGBURG *+ PTCLDY    21  18  86 SE3       30.37F

$$

INZ062-063-066-070>080-084-089>092-311200-
SOUTH CENTRAL AND SOUTHEAST INDIANA

CITY           SKY/WX    TMP DP  RH WIND       PRES   REMARKS
BLOOMINGTON    CLEAR     18  15  88 CALM      30.33F
SEYMOUR +      FAIR      19  16  86 SE3       30.36F

$$



USA.gov is the U.S. government's official web portal to all federal, state and local government web resources and services.